This demonstration page uses our WeatherBlox Daily Observations layout. Learn more.

Left ArrowRight Arrow

Hourly Observations for January 1, 2018

Temp ( °F °C ) Dew Point ( °F °C ) Humidity (%) Winds ( mph kmh ) Pressure ( in mb ) Visibility ( mi km ) Precip ( " mm )
12:53 am 00:53 Cloudy 20 -6.7 12 -11.1 71 71 E 9 15 30.63 1037 10 16 0.00 0.00
1:53 am 01:53 Cloudy 20 -6.7 12 -11.1 71 71 E 8 13 30.63 1037 10 16 0.00 0.00
2:53 am 02:53 Cloudy 20 -6.7 12 -11.1 71 71 E 8 13 30.63 1037 10 16 0.00 0.00
3:53 am 03:53 Cloudy 20 -6.7 11 -11.7 68 68 ENE 7 11 30.64 1038 10 16 0.00 0.00
4:53 am 04:53 Cloudy 20 -6.7 11 -11.7 68 68 E 6 9 30.64 1038 10 16 0.00 0.00
5:53 am 05:53 Cloudy 20 -6.7 11 -11.7 68 68 ENE 8 13 30.65 1038 10 16 0.00 0.00
6:53 am 06:53 Cloudy 19 -7.2 10 -12.2 68 68 E 7 11 30.66 1038 10 16 0.00 0.00
7:53 am 07:53 Cloudy 18 -7.8 10 -12.2 71 71 E 10 17 30.68 1039 10 16 0.00 0.00
8:53 am 08:53 Cloudy 16 -8.9 4 -15.6 59 59 ENE 13 20 30.71 1040 10 16 0.00 0.00
9:53 am 09:53 Cloudy 17 -8.3 2 -16.7 51 51 ENE 8 13 30.73 1041 10 16 0.00 0.00
10:53 am 10:53 Cloudy 19 -7.2 3 -16.1 49 49 E 9 15 30.72 1040 10 16 0.00 0.00
11:53 am 11:53 Cloudy 20 -6.7 3 -16.1 48 48 ENE 8 13 30.69 1039 10 16 0.00 0.00
12:27 pm 12:27 Cloudy 21 -6.1 3 -16.1 45 45 VRB 5 7 30.77 1042 10 16 0.00 0.00
12:53 pm 12:53 Cloudy 23 -5 4 -15.6 44 44 VRB 3 6 30.64 1038 10 16 0.00 0.00
1:53 pm 13:53 Partly Cloudy 26 -3.3 5 -15 40 40 undefined N/A 30.58 1036 10 16 0.00 0.00
2:53 pm 14:53 Sunny 27 -2.8 4 -15.6 37 37 Calm 30.54 1034 10 16 0.00 0.00
3:53 pm 15:53 Sunny 28 -2.2 4 -15.6 35 35 VRB 5 7 30.51 1033 10 16 0.00 0.00
4:53 pm 16:53 Sunny 28 -2.2 3 -16.1 34 34 SE 6 9 30.49 1033 10 16 0.00 0.00
5:53 pm 17:53 Sunny 26 -3.3 2 -16.7 35 35 SSE 7 11 30.49 1032 10 16 0.00 0.00
6:53 pm 18:53 Clear 22 -5.6 2 -16.7 42 42 ESE 6 9 30.49 1033 10 16 0.00 0.00
7:53 pm 19:53 Clear 20 -6.7 2 -16.7 45 45 SE 7 11 30.51 1033 10 16 0.00 0.00
8:53 pm 20:53 Clear 19 -7.2 2 -16.7 47 47 SE 7 11 30.51 1033 10 16 0.00 0.00
9:53 pm 21:53 Clear 18 -7.8 3 -16.1 52 52 ESE 7 11 30.50 1033 10 16 0.00 0.00
10:53 pm 22:53 Clear 17 -8.3 3 -16.1 54 54 ESE 7 11 30.50 1033 10 16 0.00 0.00
11:53 pm 23:53 Clear 17 -8.3 3 -16.1 54 54 ESE 9 15 30.49 1033 10 16 0.00 0.00

Powered by AerisWeather